Regional Weather Roundup
Issued by NWS Goodland, KS

Home | Current Version | Previous Version | Graphics & Text | Print | Product List | Glossary On
Versions: 1 2 3 4 5 6 7 8 9 10 11 12 13 14 15 16 17 18 19 20 21 22 23 24 25 26 27 28 29 30 31 32 33 34 35 36 37 38 39 40 41 42 43 44 45 46 47 48 49 50
000
ASUS43 KGLD 260659
RWRGLD

GOODLAND FORECAST AREA HOURLY WEATHER ROUNDUP
NATIONAL WEATHER SERVICE GOODLAND KS
100 AM MDT TUE SEP 26 2017

...OFFICIAL OBSERVATIONS...

CITY           SKY/WX    TMP DP  RH WIND       PRES   REMARKS
GOODLAND KS    CLOUDY    47  46  97 N9        30.13F
HILL CITY KS   CLOUDY    52  50  93 N8        30.10R
IMPERIAL NEB   CLOUDY    47  45  93 N7        30.15S
MCCOOK NEB     CLOUDY    49  48  97 N9        30.13S
AKRON CO       CLOUDY    46  40  79 E3        30.16R
BURLINGTON CO  CLOUDY    47  46  97 N8        30.14F
LIMON CO         N/A    N/A N/A N/A MISG      30.17S
$$

...UNOFFICIAL OBSERVATIONS...

CITY           SKY/WX    TMP DP  RH WIND       PRES   REMARKS
LENORA KS        N/A     49  32  52 MISG        N/A
NORTON KS      CLOUDY    48  45  87 NW9       30.10S
SHARON SPRINGS   N/A     48  47  95 N5          N/A
KIT CARSON CO    N/A     47  44  90 MISG        N/A
YUMA CO        CLOUDY    45  45 100 CALM      30.16S
$$



USA.gov is the U.S. government's official web portal to all federal, state and local government web resources and services.